Regional Weather Roundup
Issued by NWS

Home | Current Version | Previous Version | Text Only | Print | Product List | Glossary Off
Versions: 1 2 3 4 5 6 7 8 9 10 11 12 13 14 15 16 17 18 19 20 21 22 23 24 25 26 27 28 29 30 31 32 33 34 35 36 37 38 39 40 41 42 43 44 45 46 47 48 49 50

000
ASUS43 KBIS 250202
RWRND

NORTH DAKOTA REGIONAL WEATHER ROUNDUP
NATIONAL WEATHER SERVICE BISMARCK ND
900 PM CDT FRI MAR 24 2017

NOTE: "FAIR" INDICATES FEW OR NO CLOUDS BELOW 12,000 FEET WITH NO
SIGNIFICANT WEATHER AND/OR OBSTRUCTIONS TO VISIBILITY.


NDZ001>003-009>011-017-250300-
NORTHWEST NORTH DAKOTA

CITY           SKY/WX    TMP DP  RH WIND       PRES   REMARKS
WILLISTON      FAIR      44  32  62 E14G24    29.97R
MINOT          FAIR      32  28  85 E12       30.13R
MINOT AFB      CLOUDY    31  28  89 SE13      30.12R
$$

NDZ018>021-031>035-040>046-250300-
SOUTHWEST NORTH DAKOTA

CITY           SKY/WX    TMP DP  RH WIND       PRES   REMARKS
BISMARCK       FAIR      36  32  85 E10       30.14S
DICKINSON      FAIR      43  32  65 SE17      30.02R
GARRISON         N/A     33  30  88 E14       30.11R
HETTINGER ARPT CLEAR     46  32  58 E13       30.05R
$$

NDZ004>008-012>016-024-026-027-054-250300-
NORTHEAST NORTH DAKOTA

CITY           SKY/WX    TMP DP  RH WIND       PRES   REMARKS
GRAND FORKS    PTCLDY    30  28  92 N6        30.23R
GRND FRKS AFB  CLOUDY    32  28  84 NE3       30.23R
DEVILS LAKE    CLOUDY    31  26  82 E9        30.20S
$$

NDZ022-023-025-028>030-036>039-047>053-250300-
SOUTHEAST NORTH DAKOTA

CITY           SKY/WX    TMP DP  RH WIND       PRES   REMARKS
FARGO          CLEAR     31  29  92 N6        30.20S
JAMESTOWN      CLOUDY    31  28  89 E8        30.18R
$$





USA.gov is the U.S. government's official web portal to all federal, state and local government web resources and services.